Flag for Germany Weather past 2 weeks in Bergisch Gladbach, North Rhine-Westphalia, Germany

Now
34 °F

Light snow. Mostly cloudy.


Feels Like: 23 °F
Forecast: 21 / 28 °F
Wind: 16 mph from Southeast

Location: Koeln / Bonn

Current Time: Dec 27, 2014 at 9:10:04 AM

Latest Report: Dec 27, 2014 at 8:20 AM


Visibility: 4 mi

Pressure: 29.47 "Hg

Humidity: 93%

Dew point: 32 °F

Location of Bergisch GladbachLocation

Historic Weather in Bergisch Gladbach — Graph

°F

Bergisch Gladbach temperature yesterday

Maximum temperature yesterday: 39 °F (at 12:20 PM)
Minimum temperature yesterday: 34 °F (at 12:50 AM)
Average temperature yesterday: 37 °F

Past Weeks' High & Low Weather Summary

 TemperatureHumidityPressure
High55 °F (Dec 18, 5:20 PM)100% (Dec 13, 4:50 PM)30.42 "Hg (Dec 13, 4:50 PM)
Low30 °F (Dec 14, 10:50 PM)66% (Dec 24, 1:20 AM)29.45 "Hg (Dec 12, 5:20 PM)
Average43 °F85%30.02 "Hg
* Reported Dec 12 7:20 AM — Dec 27 7:50 AM, Bergisch Gladbach, Weather by CustomWeather, © 2014

Note: Actual official high and low records may vary slightly from our data, if they occured in-between our weather recording intervals... More about our weather records

Advertising

Bergisch Gladbach weather history for previous 24 hours

 ConditionsComfort  
Time TempWeatherWind HumidityBarometerVisibility
7:50 AM
Dec 27
34 °FSnow. Overcast.16 mph93%29.50 "Hg4 mi
7:20 AM34 °FRain. Overcast.18 mph93%29.53 "Hg4 mi
6:50 AM34 °FRain. Overcast.16 mph93%29.56 "Hg5 mi
6:20 AM34 °FSnow. Overcast.18 mph93%29.59 "Hg5 mi
5:50 AM34 °FSnow. Overcast.15 mph93%29.65 "Hg5 mi
5:20 AM34 °FRain. Mostly cloudy.15 mph93%29.71 "Hg4 mi
4:20 AM36 °FRain. Mostly cloudy.17 mph87%29.80 "HgN/A
3:50 AM36 °FLight rain. Passing clouds.16 mph87%29.83 "HgN/A
3:20 AM37 °FPartly cloudy.15 mph81%29.86 "HgN/A
2:50 AM36 °FClear.13 mph87%29.89 "Hg10 mi
2:20 AM36 °FClear.14 mph87%29.92 "Hg10 mi
1:50 AM36 °FClear.14 mph87%29.95 "Hg10 mi
1:20 AM36 °FClear.12 mph87%30.01 "Hg10 mi
12:50 AM36 °FClear.12 mph87%30.04 "Hg10 mi
12:20 AM36 °FClear.10 mph87%30.07 "Hg10 mi
11:50 PM
Dec 26
36 °FClear.9 mph87%30.09 "Hg10 mi
11:20 PM36 °FClear.8 mph87%30.12 "Hg10 mi
10:20 PM34 °FClear.7 mph93%30.15 "Hg10 mi
9:50 PM34 °FPartly cloudy.8 mph93%30.18 "HgN/A
9:20 PM36 °FClear.9 mph93%30.21 "Hg10 mi
8:50 PM36 °FPassing clouds.7 mph93%30.24 "HgN/A
8:20 PM36 °FPassing clouds.7 mph93%30.24 "HgN/A
7:50 PM36 °FPartly cloudy.7 mph93%30.27 "HgN/A
7:20 PM36 °FPartly cloudy.6 mph93%30.27 "HgN/A
6:50 PM36 °FPassing clouds.6 mph100%30.27 "HgN/A
6:20 PM37 °FSnow flurries. Passing clouds.6 mph93%30.30 "HgN/A
5:20 PM36 °FPassing clouds.6 mph100%30.33 "HgN/A
4:20 PM37 °FMore clouds than sun.5 mph93%30.33 "HgN/A
3:50 PM37 °FMore clouds than sun.3 mph93%30.33 "HgN/A
3:20 PM39 °FBroken clouds.3 mph87%30.33 "HgN/A
2:50 PM39 °FBroken clouds.2 mph87%30.36 "HgN/A
2:20 PM39 °FPartly sunny.2 mph87%30.36 "HgN/A
1:50 PM39 °FBroken clouds.6 mph87%30.36 "HgN/A
1:20 PM39 °FPartly sunny.1 mph87%30.36 "HgN/A
12:50 PM39 °FPartly sunny.5 mph87%30.39 "HgN/A
12:20 PM39 °FPartly sunny.6 mph87%30.39 "HgN/A
11:50 AM37 °FSprinkles. Partly sunny.5 mph93%30.39 "HgN/A
11:20 AM37 °FScattered showers. Broken clouds.6 mph93%30.42 "HgN/A
10:50 AM37 °FSprinkles. Partly sunny.6 mph93%30.42 "Hg5 mi
10:20 AM37 °FScattered showers. Partly sunny.6 mph93%30.42 "HgN/A
9:50 AM37 °FBroken clouds.7 mph93%30.42 "HgN/A
9:20 AM37 °FPartly sunny.3 mph93%30.39 "HgN/A
Weather by CustomWeather, © 2014

See weather overviewHow to use our weather pages